Preview of NWS' New Version of Forecast
This preview is not operational and should not be used for support decisions.

Regional Weather Roundup (RWR)

Issued by Fort Worth/Dallas, TX (FWD)

                            
000
ASUS44 KFWD 200715
RWRFWD
NORTH TEXAS HOURLY WEATHER ROUNDUP
NATIONAL WEATHER SERVICE FORT WORTH TX
200 AM CDT MON MAY 20 2019

NOTE: "FAIR" INDICATES FEW OR NO CLOUDS BELOW 12,000 FEET WITH NO
SIGNIFICANT WEATHER AND/OR OBSTRUCTIONS TO VISIBILITY.

TXZ118-119-200800-
DALLAS/FORT WORTH METROPLEX
  
CITY           SKY/WX    TMP DP  RH WIND       PRES   REMARKS
DFW AIRPORT    MOCLDY    73  60  63 E9        29.85F                  
DALLAS LOVE    FAIR      75  60  59 E9        29.86F                  
FTW MEACHAM    FAIR      72  60  66 E12       29.86F                  
DAL-EXECUTIVE  FAIR      72  61  68 E9        29.86F                  
FTW-ALLIANCE   FAIR      72  59  63 E6        29.87F                  
FTW-NAS-JRB    FAIR      73  60  63 E8        29.86F                  
FTW-SPINKS     MOCLDY    72  62  71 E5        29.88F                  
ARLINGTON      MOCLDY    75  60  59 E9        29.86F                  
GRAND PRAIRIE  FAIR      73  59  60 E9        29.88F                  
ADDISON        FAIR      73  59  61 E10G16    29.89F                  
MESQUITE       FAIR      72  62  69 E7        29.88F                  
LANCASTER      FAIR      69  63  82 E3        29.89S                  
$$

TXZ091>094-102>105-117-120-121-131>134-200800-
NORTH CENTRAL TEXAS
  
CITY           SKY/WX    TMP DP  RH WIND       PRES   REMARKS
SHRMAN/DENISON FAIR      66  60  78 E9        29.90F                  
GAINESVILLE    FAIR      65  59  82 CALM      29.91F                  
BOWIE          FAIR      67  59  74 E5        29.89F                  
BRIDGEPORT     FAIR      64  61  91 E3        29.89F                  
DECATUR        FAIR      65  60  82 E6        29.88F                  
DENTON         FAIR      70  60  70 E3        29.88F                  
MCKINNEY       FAIR      69  60  73 CALM      29.88F                  
BONHAM         FAIR      64  63  97 E5        29.91S                  
GREENVILLE     FAIR      72  63  73 CALM      29.89F                  
ROCKWALL       FAIR      71  61  71 E8        29.88F                  
TERRELL        FAIR      72  63  73 E5        29.88F                  
WAXAHACHIE     MOCLDY    71  64  78 E5        29.88F                  
CLEBURNE       CLOUDY    73  64  73 E12G18    29.88F                  
GRANBURY       MOCLDY    74  61  65 CALM      29.87F                  
$$

TXZ083>090-098>101-113>116-127>130-139>142-154-155-200800-
WESTERN NORTH TEXAS
  
CITY           SKY/WX    TMP DP  RH WIND       PRES   REMARKS
WICHITA FALLS  FAIR      64  61  90 E8        29.87F                  
WF-KICKAPOO    FAIR      64  60  87 E6        29.90F                  
VERNON         MOCLDY    63  61  94 E7        29.89F                  
ABILENE        FAIR      70  61  73 SE13      29.84F                  
ABILENE-DYESS  PTCLDY    71  56  61 SE13      29.83F                  
GRAHAM         FAIR      68  60  74 CALM      29.85F                  
BRECKENRIDGE   FAIR      71  58  61 SE12G17   29.85F HAZE             
CISCO          CLOUDY    68  59  73 SE12      29.87F                  
EASTLAND       FAIR      66  58  76 SE5       29.86F                  
RANGER         MOCLDY    68  59  74 E7        29.87F                  
MINERAL WELLS  FAIR      68  59  73 SE7       29.85F                  
STEPHENVILLE   MOCLDY    71  61  70 E10       29.90S                  
COMANCHE       CLOUDY    69  64  83 SE5       29.87F                  
BROWNWOOD      CLOUDY    72  66  83 E8        29.85F                  
COLEMAN        FAIR      68  62  79 E6        29.86F                  
BRADY          CLOUDY    75  72  88 SE13G22   29.86S                  
$$

TXZ143>147-156>162-174-175-200800-
CENTRAL TEXAS
  
CITY           SKY/WX    TMP DP  RH WIND       PRES   REMARKS
WACO           FAIR      78  73  84 SE15      29.85F                  
WACO-MCGREGOR  FAIR      77  75  93 SE13      29.86S                  
HILLSBORO      CLOUDY    74  72  95 E7        29.86F                  
CORSICANA      CLOUDY    75  71  87 S12       29.88S                  
MEXIA          MOCLDY    75  71  86 S8        29.87F                  
HEARNE         CLOUDY    77  75  94 SE8       29.88F                  
CAMERON        CLOUDY    77  74  90 SE8       29.86F                  
TEMPLE           N/A     76  76 100 SE13      29.86F                  
KILLEEN        CLOUDY    75  72  90 SE13      29.85S                  
KILLEEN-SKYLRK FAIR      76  73  91 S10       29.86F                  
FORT HOOD        N/A     76  73  89 S10       29.82F                  
GATESVILLE     FAIR      75  73  94 SE6       29.88R                  
HAMILTON       FAIR      73  73  98 SE7       29.87F                  
LAMPASAS       FAIR      74  72  91 SE12G17   29.85F                  
$$

TXZ095>097-106>112-122>126-135>138-148>153-164>167-200800-
EAST TEXAS
  
CITY           SKY/WX    TMP DP  RH WIND       PRES   REMARKS
PARIS          FAIR      67  61  81 E7        29.91F                  
SULPHUR SPRNGS FAIR      68  64  84 CALM      29.91F                  
MOUNT PLEASANT FAIR      71  67  88 CALM      29.91F                  
GILMER         FAIR      70  67  90 SE5       29.91S FOG              
MINEOLA        FAIR      70  64  83 SE3       29.89S                  
TYLER          FAIR      73  71  93 SE6       29.89F                  
LONGVIEW       FAIR      72  71  97 E5        29.90F                  
MARSHALL       FAIR      70  67  92 CALM      29.94F                  
ATHENS         FAIR      73  68  83 S5        29.87F                  
PALESTINE      FAIR      72  70  93 SE3       29.89F                  
JACKSONVILLE   MOCLDY    71  70  97 SE5       29.93R                  
CENTER         PTSUNNY   68  65  92 CALM      29.94                   
NACOGDOCHES    CLOUDY    72  70  93 SE7       29.92F                  
LUFKIN         CLOUDY    70  70 100 E6        29.91F                  
$$

SUPPLEMENTAL OBSERVATIONS (NWS FORT WORTH AREA)
  
CITY           SKY/WX    TMP DP  RH WIND       PRES   REMARKS
CADDO GRASSLND   N/A     68  59  73 E3          N/A                   
LBJ GRASSLAND    N/A     68  59  73 E8          N/A                   
POSSUM KINGDOM   N/A     66  59  77 E5          N/A                   
GRANBURY         N/A    N/A N/A N/A E8          N/A                   
COMANCHE         N/A     70  64  83 SE5         N/A                   
MCGREGOR         N/A     75  70  83 S10         N/A                   
TEMPLE           N/A     77  73  88 SE3G13      N/A                   
LAKE LIMESTONE   N/A     75  73  94 SE5         N/A                   
PALESTINE        N/A     72  68  88 SE1         N/A                   
$$

SUPPLEMENTAL OBSERVATIONS (NWS NORMAN AREA)
  
CITY           SKY/WX    TMP DP  RH WIND       PRES   REMARKS
GOODLETT         N/A     61  56  84 E7        29.86F                  
ODELL            N/A     63  59  87 E8        29.88F                  
CROWELL          N/A     64  60  87 E8        29.86F                  
KNOX CITY        N/A     67  58  72 E6        29.84F                  
SEYMOUR          N/A     66  58  76 E9        29.85F                  
$$

SUPPLEMENTAL OBSERVATIONS (NWS SAN ANGELO AREA)
  
CITY           SKY/WX    TMP DP  RH WIND       PRES   REMARKS
WEINERT          N/A     67  57  71 E12       29.84F                  
HASKELL          N/A     66  57  73 E9        29.83F                  
THROCKMORTON     N/A     63  59  89 E5          N/A                   
STAMFORD         N/A     67  58  74 E9        29.83F                  
CLYDE            N/A     69  60  74 SE13      29.85F                  
HAMBY            N/A     70  57  64 SE12        N/A                   
IVIE RESERVOIR   N/A     72  68  88 E9          N/A                   
COLORADO BEND    N/A     75  72  88 SE13G21     N/A                   
$$

SUPPLEMENTAL OBSERVATIONS (NWS SHREVEPORT AREA)
  
CITY           SKY/WX    TMP DP  RH WIND       PRES   REMARKS
TEXARKANA        N/A     64  63  94 CALM        N/A                   
LINDEN           N/A     70  64  83 E2          N/A                   
CADDO LAKE       N/A     68  66  94 S1          N/A                   
LUFKIN           N/A     72  68  88 MISG        N/A                   
N SABINE NF      N/A     68  64  88 MISG        N/A                   
$$

SUPPLEMENTAL OBSERVATIONS ARE A COLLECTION OF AUTOMATED INSTRUMENTS
THAT ARE MAINTAINED BY A VARIETY OF FEDERAL AND STATE AGENCIES. 
CERTAIN ELEMENTS...SUCH AS HUMIDITY VALUES AND SUSTAINED WIND 
SPEEDS...MAY BE APPROXIMATED.